STARLINK-3114 (49426 NORAD) Tracking and Keplerian Element Data

This shows tracking and keplerian element data for the satellite.

Feedback or suggestion? Click here.




ElementValue
Catalog49426
NameSTARLINK-3114
Epoch Orbit130
Epoch Day140.58334491
Epoch Year2022
RAAN345.0559
Inclination53.2186
Eccentricity0.0001952
Argument of Perigee43.422
Mean Anonmoly73.0755
Mean Motion15.08853558
Decay Rate-0.00022169
L11 49426U 21104U 22140.58334491 -.00022169 00000+0 -13785-2 0 9996
L22 49426 53.2186 345.0559 0001952 43.4220 73.0755 15.08853558 1304

Live tracking and technical data element details for STARLINK-3114 (NORAD 49426). STARLINK-3114 can be tracked NOW for your location showing map with azimuth and elevation plus other details from your city location.

Track the satellite on the map from your city or location and see movement details for azimuth, elevation, latitude, longitude, range, height, and movement on the map or in text.







IsCatalogInMostPopularTable: catalog: 49426, numindb: 29
Update: records affected: 1



GetName: 49426 STARLINK-3114

Hit Count: updated at: Mon, 23 May 2022 20:53:56 GMT